When you browse on this site, cookies collect data to enhance your experience and personalize the content and advertising you see.
Visit our Privacy Policy to learn more. By continuing to use the site, you agree to this use of cookies and data.
  • In Latvia
  • List of Countries
  • For 7 days
  • Water Temperature
  • Satellite Maps
  • Weather Map
  • Weather Widgets
  • user-avatar
    Login

    Hourly Weather Konstantyna

    Today, 23 March, Saturday

    Time Temperature Precipitation Wind Pressure Humidity
    00:00 +8°C° 0.6 mm 2 mps 711 mmHg 96%
    01:00 +8°C° 0.8 mm 2 mps 711 mmHg 96%
    02:00 +9°C° 0.8 mm 1 mps 711 mmHg 96%
    03:00 +8°C° 0.8 mm 1 mps 711 mmHg 96%
    04:00 +8°C° 0.9 mm 2 mps 711 mmHg 97%
    05:00 +8°C° 0.9 mm 2 mps 711 mmHg 97%
    06:00 +8°C° 0.9 mm 2 mps 711 mmHg 97%
    07:00 +9°C° 0.4 mm 2 mps 712 mmHg 95%
    08:00 +9°C° 0.4 mm 2 mps 712 mmHg 93%
    09:00 +10°C° 0.4 mm 3 mps 713 mmHg 91%
    10:00 +10°C° 0.1 mm 3 mps 713 mmHg 89%
    11:00 +11°C° 0.1 mm 3 mps 713 mmHg 87%
    12:00 +11°C° 0.1 mm 3 mps 713 mmHg 85%
    13:00 +12°C° 0.2 mm 3 mps 713 mmHg 84%
    14:00 +12°C° 0.2 mm 4 mps 713 mmHg 83%
    15:00 +12°C° 0.2 mm 4 mps 713 mmHg 82%
    16:00 +11°C° 0.1 mm 3 mps 713 mmHg 84%
    17:00 +12°C° 0.1 mm 2 mps 713 mmHg 87%
    18:00 +10°C° 0.1 mm 2 mps 713 mmHg 89%
    19:00 +10°C° 0 mm 1 mps 713 mmHg 91%
    20:00 +9°C° 0 mm 1 mps 713 mmHg 93%
    21:00 +8°C° 0 mm 1 mps 714 mmHg 94%
    22:00 +8°C° 0 mm 1 mps 714 mmHg 94%
    23:00 +7°C° 0 mm 1 mps 714 mmHg 94%

    Tomorrow, 24 March, Sunday

    Time Temperature Precipitation Wind Pressure Humidity
    00:00 +7°C° 0 mm 1 mps 714 mmHg 94%
    01:00 +7°C° 0 mm 1 mps 714 mmHg 94%
    02:00 +7°C° 0 mm 1 mps 714 mmHg 94%
    03:00 +7°C° 0 mm 1 mps 713 mmHg 94%
    04:00 +7°C° 0 mm 1 mps 713 mmHg 93%
    05:00 +7°C° 0 mm 1 mps 713 mmHg 93%
    06:00 +7°C° 0 mm 1 mps 714 mmHg 92%
    07:00 +10°C° 0 mm 1 mps 714 mmHg 83%
    08:00 +12°C° 0 mm 1 mps 715 mmHg 74%
    09:00 +14°C° 0 mm 1 mps 716 mmHg 64%
    10:00 +15°C° 0 mm 1 mps 715 mmHg 59%
    11:00 +18°C° 0 mm 1 mps 715 mmHg 53%
    12:00 +19°C° 0 mm 1 mps 715 mmHg 48%
    13:00 +19°C° 0 mm 1 mps 715 mmHg 45%
    14:00 +19°C° 0 mm 1 mps 714 mmHg 43%
    15:00 +18°C° 0 mm 0 mps 714 mmHg 41%
    16:00 +18°C° 0 mm 1 mps 714 mmHg 50%
    17:00 +15°C° 0 mm 1 mps 713 mmHg 60%
    18:00 +13°C° 0 mm 1 mps 713 mmHg 69%
    19:00 +12°C° 0 mm 1 mps 713 mmHg 74%
    20:00 +10°C° 0 mm 0 mps 714 mmHg 78%
    21:00 +10°C° 0 mm 0 mps 714 mmHg 82%
    22:00 +11°C° 0 mm 1 mps 714 mmHg 80%
    23:00 +11°C° 0 mm 1 mps 714 mmHg 77%

    Day after tomorrow, 25 March, Monday

    Time Temperature Precipitation Wind Pressure Humidity
    00:00 +11°C° 0 mm 1 mps 713 mmHg 75%
    01:00 +10°C° 0 mm 2 mps 713 mmHg 73%
    02:00 +10°C° 0 mm 2 mps 713 mmHg 71%
    03:00 +10°C° 0 mm 2 mps 712 mmHg 69%
    04:00 +10°C° 0 mm 2 mps 712 mmHg 70%
    05:00 +9°C° 0 mm 2 mps 712 mmHg 72%
    06:00 +9°C° 0 mm 2 mps 712 mmHg 73%
    07:00 +12°C° 0 mm 2 mps 713 mmHg 68%
    08:00 +14°C° 0 mm 2 mps 713 mmHg 62%
    09:00 +16°C° 0 mm 2 mps 714 mmHg 56%
    10:00 +17°C° 0 mm 2 mps 714 mmHg 53%
    11:00 +18°C° 0 mm 2 mps 713 mmHg 50%
    12:00 +19°C° 0 mm 2 mps 713 mmHg 47%
    13:00 +19°C° 0.1 mm 2 mps 713 mmHg 49%
    14:00 +19°C° 0.1 mm 3 mps 712 mmHg 52%
    15:00 +19°C° 0.1 mm 3 mps 712 mmHg 54%
    16:00 +17°C° 0.3 mm 2 mps 711 mmHg 65%
    17:00 +15°C° 0.3 mm 2 mps 711 mmHg 75%
    18:00 +13°C° 0.3 mm 2 mps 710 mmHg 85%
    19:00 +12°C° 0 mm 1 mps 711 mmHg 87%
    20:00 +12°C° 0 mm 1 mps 711 mmHg 89%
    21:00 +10°C° 0 mm 0 mps 711 mmHg 90%
    22:00 +11°C° 0 mm 1 mps 711 mmHg 90%
    23:00 +10°C° 0 mm 1 mps 711 mmHg 89%

    26 March, Tuesday

    Time Temperature Precipitation Wind Pressure Humidity
    00:00 +10°C° 0 mm 1 mps 711 mmHg 89%
    01:00 +10°C° 0 mm 1 mps 710 mmHg 88%
    02:00 +10°C° 0 mm 1 mps 710 mmHg 87%
    03:00 +10°C° 0 mm 1 mps 710 mmHg 86%
    04:00 +9°C° 0 mm 0 mps 710 mmHg 85%
    05:00 +9°C° 0 mm 0 mps 710 mmHg 84%
    06:00 +9°C° 0 mm 0 mps 710 mmHg 83%
    07:00 +11°C° 0 mm 0 mps 711 mmHg 77%
    08:00 +14°C° 0 mm 1 mps 711 mmHg 71%
    09:00 +16°C° 0 mm 1 mps 712 mmHg 65%
    10:00 +17°C° 0 mm 2 mps 712 mmHg 63%
    11:00 +18°C° 0 mm 2 mps 712 mmHg 62%
    12:00 +19°C° 0 mm 2 mps 712 mmHg 60%
    13:00 +18°C° 0.3 mm 2 mps 712 mmHg 64%
    14:00 +18°C° 0.3 mm 2 mps 711 mmHg 68%
    15:00 +17°C° 0.3 mm 3 mps 711 mmHg 72%
    16:00 +16°C° 0.2 mm 2 mps 711 mmHg 77%
    17:00 +14°C° 0.2 mm 2 mps 711 mmHg 83%
    18:00 +13°C° 0.2 mm 2 mps 711 mmHg 88%
    19:00 +12°C° 0 mm 1 mps 712 mmHg 90%
    20:00 +11°C° 0 mm 1 mps 712 mmHg 92%
    21:00 +10°C° 0 mm 1 mps 712 mmHg 94%
    22:00 +9°C° 0 mm 1 mps 712 mmHg 94%
    23:00 +9°C° 0 mm 1 mps 712 mmHg 93%

    27 March, Wednesday

    Time Temperature Precipitation Wind Pressure Humidity
    00:00 +9°C° 0 mm 1 mps 712 mmHg 93%
    01:00 +9°C° 0 mm 1 mps 712 mmHg 93%
    02:00 +9°C° 0 mm 1 mps 712 mmHg 92%
    03:00 +9°C° 0 mm 1 mps 712 mmHg 92%
    04:00 +9°C° 0 mm 1 mps 712 mmHg 91%
    05:00 +9°C° 0 mm 1 mps 713 mmHg 90%
    06:00 +9°C° 0 mm 1 mps 713 mmHg 90%
    07:00 +9°C° 0 mm 2 mps 713 mmHg 84%
    08:00 +12°C° 0 mm 2 mps 714 mmHg 79%
    09:00 +13°C° 0 mm 2 mps 714 mmHg 74%
    10:00 +14°C° 0 mm 3 mps 714 mmHg 71%
    11:00 +16°C° 0 mm 3 mps 714 mmHg 67%
    12:00 +18°C° 0 mm 4 mps 714 mmHg 64%
    13:00 +18°C° 0 mm 4 mps 714 mmHg 65%
    14:00 +18°C° 0 mm 4 mps 713 mmHg 66%
    15:00 +17°C° 0 mm 4 mps 713 mmHg 67%
    16:00 +15°C° 0 mm 4 mps 712 mmHg 72%
    17:00 +14°C° 0 mm 4 mps 712 mmHg 77%
    18:00 +12°C° 0 mm 3 mps 712 mmHg 81%
    19:00 +12°C° 0 mm 3 mps 712 mmHg 81%
    20:00 +12°C° 0 mm 2 mps 712 mmHg 80%
    21:00 +10°C° 0 mm 2 mps 713 mmHg 80%
    22:00 +11°C° 0 mm 1 mps 712 mmHg 79%
    23:00 +11°C° 0 mm 1 mps 712 mmHg 78%

    28 March, Thursday

    Time Temperature Precipitation Wind Pressure Humidity
    00:00 +10°C° 0 mm 1 mps 712 mmHg 77%
    01:00 +10°C° 0 mm 1 mps 712 mmHg 75%
    02:00 +10°C° 0 mm 1 mps 711 mmHg 74%
    03:00 +9°C° 0 mm 2 mps 711 mmHg 73%
    04:00 +8°C° 0 mm 2 mps 711 mmHg 74%
    05:00 +8°C° 0 mm 2 mps 711 mmHg 76%
    06:00 +8°C° 0 mm 2 mps 711 mmHg 78%
    07:00 +10°C° 0 mm 2 mps 711 mmHg 72%
    08:00 +13°C° 0 mm 2 mps 712 mmHg 67%
    09:00 +15°C° 0 mm 1 mps 712 mmHg 61%
    10:00 +16°C° 0.2 mm 1 mps 712 mmHg 60%
    11:00 +19°C° 0.2 mm 1 mps 712 mmHg 58%
    12:00 +18°C° 0.2 mm 0 mps 712 mmHg 57%
    13:00 +20°C° 1 mm 1 mps 711 mmHg 61%
    14:00 +18°C° 1 mm 2 mps 711 mmHg 66%
    15:00 +18°C° 1 mm 3 mps 711 mmHg 70%
    16:00 +17°C° 1.6 mm 3 mps 711 mmHg 77%
    17:00 +14°C° 1.6 mm 3 mps 711 mmHg 83%
    18:00 +14°C° 1.6 mm 2 mps 711 mmHg 90%
    19:00 +13°C° 0.3 mm 2 mps 711 mmHg 91%
    20:00 +12°C° 0.3 mm 1 mps 711 mmHg 92%
    21:00 +11°C° 0.3 mm 1 mps 712 mmHg 93%
    22:00 +11°C° 0 mm 1 mps 712 mmHg 93%
    23:00 +11°C° 0 mm 1 mps 712 mmHg 93%
    Show more